• Processing (Info)

  • MPEC 2014-U88 : 2014 UX57

    The following Minor Planet Electronic Circular may be linked-to from your own Web pages, but must not otherwise be redistributed electronically.

    A form allowing access to any MPEC is at the bottom of this page.


    Read MPEC 2014-U87 Read MPEC 2014-U89


    M.P.E.C. 2014-U88                                Issued 2014 Oct. 27, 14:30 UT
    
         The Minor Planet Electronic Circulars contain information on unusual
             minor planets and routine data on comets.  They are published
       on behalf of Commission 20 of the International Astronomical Union by the
              Minor Planet Center, Smithsonian Astrophysical Observatory,
                              Cambridge, MA 02138, U.S.A.
    
                 Prepared using the Tamkin Foundation Computer Network
    
                                  MPC@CFA.HARVARD.EDU
                URL https://www.minorplanetcenter.net/    ISSN 1523-6714
    
                                       2014 UX57
    
    Observations:
         K14U57X* C2014 10 25.28531 02 04 57.22 +07 38 51.1          20.4 VqEU088G96
         K14U57X  C2014 10 25.29139 02 04 56.60 +07 39 05.3          20.3 VqEU088G96
         K14U57X  C2014 10 25.29749 02 04 56.01 +07 39 19.3          20.4 VqEU088G96
         K14U57X  C2014 10 25.30358 02 04 55.41 +07 39 32.9          20.6 VqEU088G96
         K14U57X  C2014 10 25.40509 02 04 45.41 +07 43 22.8          21.0 VqEU088G96
         K14U57X  C2014 10 25.41212 02 04 44.75 +07 43 38.7          20.6 VqEU088G96
         K14U57X  C2014 10 25.41915 02 04 44.13 +07 43 54.8          20.5 VqEU088G96
         K14U57X  C2014 10 25.42617 02 04 43.50 +07 44 10.1          19.9 VqEU088G96
         K14U57X KC2014 10 26.22852 02 04 08.82 +08 17 34.1                oEU088291
         K14U57X KC2014 10 26.23021 02 04 08.63 +08 17 38.5                oEU088291
         K14U57X KC2014 10 26.23189 02 04 08.43 +08 17 43.2                oEU088291
         K14U57X KC2014 10 27.12130 02 03 13.29 +09 00 16.8          21.0 VqEU088H21
         K14U57X KC2014 10 27.13654 02 03 11.57 +09 01 05.4          20.4 VqEU088H21
         K14U57X KC2014 10 27.14523 02 03 10.68 +09 01 34.6          20.7 VqEU088H21
    
    Observer details:
    291 LPL/Spacewatch II.  Observer A. F. Tubbiolo.  1.8-m f/2.7 reflector + CCD.
    G96 Mt. Lemmon Survey.  Observer E. J. Christensen.  Measurers
        E. J. Christensen, A. R. Gibbs, A. D. Grauer, R. E. Hill, J. A. Johnson,
        R. A. Kowalski, S. M. Larson, F. C. Shelly.  1.5-m reflector + CCD.
    H21 Astronomical Research Observatory, Westfield.  Observer R. Holmes.
        Measurers L. Buzzi, S. Foglia, T. Vorobjov, T. Linder.  0.61-m f/4.0
        astrograph + CCD.
    
    Orbital elements:
    2014 UX57                                                Earth MOID = 0.0094 AU
    Epoch 2014 Dec. 9.0 TT = JDT 2457000.5                  MPC
    M 347.87560              (2000.0)            P               Q
    n   0.68692872     Peri.   73.03506     -0.31909046     -0.94704234
    a   1.2721205      Node    35.63706     +0.84436069     -0.30130866
    e   0.3292785      Incl.    3.53700     +0.43039087     -0.11101303
    P   1.43           H   26.2           G   0.15           U   8
    Residuals in seconds of arc
    141025 G96  0.3-  0.3-    141025 G96  0.1-  0.0     141026 291  0.1-  0.1+
    141025 G96  0.4-  0.1+    141025 G96  0.1+  0.3+    141027 H21  0.6-  0.2-
    141025 G96  0.0   0.2+    141025 G96  0.0   0.3-    141027 H21  0.7-  0.6-
    141025 G96  0.2+  0.1-    141026 291  0.3+  0.1+    141027 H21  0.9+  0.6+
    141025 G96  0.1+  0.1-    141026 291  0.2+  0.1-
    
    Ephemeris:
    2014 UX57                a,e,i = 1.27, 0.33, 4                   q = 0.8532
    Date    TT    R. A. (2000) Decl.     Delta      r     Elong.  Phase     V
    2014 09 27    02 04 30.9 +02 54 20   0.2247  1.2058   152.2    22.8    24.5
    ...
    2014 10 12    02 08 54.3 +03 51 14   0.1326  1.1265   164.4    13.7    22.9
    ...
    2014 10 20    02 07 53.1 +05 22 00   0.08920 1.0841   171.1     8.2    21.7
    ...
    2014 10 26    02 04 18.2 +08 08 36   0.05871 1.0528   175.8     4.0    20.5
    2014 10 27    02 03 16.2 +08 55 25   0.05379 1.0477   176.3     3.5    20.3
    2014 10 28    02 02 01.6 +09 51 51   0.04891 1.0426   176.6     3.3    20.1
    ...
    2014 11 03    01 41 59.7 +24 37 36   0.02090 1.0123   164.8    14.8    18.7
    ...
    2014 11 11    14 44 25.6 +24 23 43   0.02195 0.9739    41.9   137.2    24.3
    ...
    2014 11 26    14 23 29.5 +04 32 08   0.09458 0.9119    35.7   140.9    27.8
    
    A. U. Tomatic                (C) Copyright 2014 MPC           M.P.E.C. 2014-U88
    

    Read MPEC 2014-U87 Read MPEC 2014-U89


    MPEC number:

    Enter an MPEC number in one of the following forms:

    • 1997-B01 (the full form)
    • J97B01 (the packed version of the full form)
    • B01 (the abbreviated form)